TimeCET,TemperatureF,Dew PointF,Humidity,Sea Level PressureIn,VisibilityMPH,Wind Direction,Wind SpeedMPH,Gust SpeedMPH,PrecipitationIn,Events,Conditions,WindDirDegrees,DateUTC
12:55 AM,44.6,41.0,87,30.01,6.2,NE,1.2,-,N/A,,Partly Cloudy,50,2013-03-02 23:55:00
1:00 AM,45,41,82,30.03,7,NE,1.2,,,,Scattered Clouds,50,2013-03-03 00:00:00
2:55 AM,42.8,39.2,87,30.01,6.2,NNW,2.3,-,N/A,,Partly Cloudy,340,2013-03-03 01:55:00
3:55 AM,41.0,37.4,87,30.01,6.2,NNW,2.3,-,N/A,,Partly Cloudy,340,2013-03-03 02:55:00
4:00 AM,42,38,80,30.03,7,NNW,2.3,,,,Scattered Clouds,340,2013-03-03 03:00:00
4:55 AM,41.0,35.6,81,30.01,6.2,NNW,3.5,-,N/A,,Partly Cloudy,340,2013-03-03 03:55:00
6:55 AM,39.2,35.6,87,30.04,6.2,NW,1.2,-,N/A,,Partly Cloudy,320,2013-03-03 05:55:00
7:00 AM,39,35,82,30.04,6,NW,1.2,,,,Scattered Clouds,320,2013-03-03 06:00:00
7:55 AM,37.4,33.8,87,30.04,6.2,North,2.3,-,N/A,,Partly Cloudy,10,2013-03-03 06:55:00
8:55 AM,46.4,42.8,87,30.04,6.2,Calm,Calm,-,N/A,,Partly Cloudy,0,2013-03-03 07:55:00
9:55 AM,50.0,46.4,87,30.04,6.2,SSE,1.2,-,N/A,,Scattered Clouds,150,2013-03-03 08:55:00
10:00 AM,50,46,81,30.06,6,SSE,1.2,,,,Scattered Clouds,150,2013-03-03 09:00:00
11:55 AM,60.8,50.0,68,30.04,6.2,SSE,5.8,-,N/A,,Scattered Clouds,150,2013-03-03 10:55:00
12:55 PM,60.8,51.8,72,30.01,6.2,SSE,5.8,-,N/A,,Scattered Clouds,160,2013-03-03 11:55:00
1:00 PM,62,51,59,30.03,12,SSE,5.8,,,,Partly Cloudy,160,2013-03-03 12:00:00
1:55 PM,60.8,50.0,68,30.01,6.2,South,4.6,-,N/A,,Scattered Clouds,170,2013-03-03 12:55:00
4:00 PM,63,54,66,30.00,12,SW,4.6,,,,Partly Cloudy,220,2013-03-03 15:00:00
4:55 PM,60.8,53.6,77,29.98,6.2,WSW,3.5,-,N/A,,Scattered Clouds,250,2013-03-03 15:55:00
5:55 PM,59.0,55.4,88,30.01,6.2,SW,2.3,-,N/A,,Scattered Clouds,220,2013-03-03 16:55:00
6:55 PM,57.2,53.6,88,30.01,6.2,ESE,4.6,-,N/A,,Scattered Clouds,110,2013-03-03 17:55:00
7:00 PM,57,53,81,30.02,10,ESE,4.6,,,,Partly Cloudy,110,2013-03-03 18:00:00
7:55 PM,55.4,53.6,94,30.04,6.2,ESE,4.6,-,N/A,,Scattered Clouds,110,2013-03-03 18:55:00
8:55 PM,53.6,50.0,88,30.04,6.2,ESE,4.6,-,N/A,,Scattered Clouds,120,2013-03-03 19:55:00
9:55 PM,51.8,48.2,88,30.04,6.2,SE,4.6,-,N/A,,Scattered Clouds,140,2013-03-03 20:55:00
10:55 PM,50.0,46.4,87,30.04,6.2,Calm,Calm,-,N/A,,Scattered Clouds,0,2013-03-03 21:55:00
11:55 PM,48.2,44.6,87,30.04,6.2,Calm,Calm,-,N/A,,Scattered Clouds,0,2013-03-03 22:55:00